This is the latest recevied weather packets stored in our database for station/object KI5NXU. If no packets are shown the sender has not sent any weather packets the latest 10 day(s).
| Time | Temp. | Humidity | Pressure | Rain* | Wind** | Luminosity | Snow |
|---|---|---|---|---|---|---|---|
| 1778133631 | 12.22° C | 87% | 1016.6 hPa | 0 mm | - | 0 W/m² | - |
| 1778133331 | 12.22° C | 87% | 1016.8 hPa | 0 mm | - | 0 W/m² | - |
| 1778133028 | 12.22° C | 87% | 1016.8 hPa | 0 mm | - | 0 W/m² | - |
| 1778132724 | 12.22° C | 87% | 1016.7 hPa | 0 mm | - | 0 W/m² | - |
| 1778132421 | 12.22° C | 87% | 1016.7 hPa | 0 mm | - | 0 W/m² | - |
| 1778132119 | 11.67° C | 88% | 1016.3 hPa | 0 mm | - | 0 W/m² | - |
| 1778131818 | 11.67° C | 89% | 1016.3 hPa | 0 mm | - | 0 W/m² | - |
| 1778131515 | 11.11° C | 90% | 1016.4 hPa | 0 mm | - | 0 W/m² | - |
| 1778131211 | 11.11° C | 90% | 1016.4 hPa | 0 mm | - | 0 W/m² | - |
| 1778130909 | 11.11° C | 89% | 1016.3 hPa | 0 mm | - | 0 W/m² | - |
| 1778130606 | 11.67° C | 88% | 1016.2 hPa | 0 mm | - | 0 W/m² | - |
| 1778130302 | 12.22° C | 88% | 1016.2 hPa | 0 mm | - | 0 W/m² | - |
| 1778129999 | 12.22° C | 88% | 1016.2 hPa | 0 mm | - | 0 W/m² | - |
| 1778129695 | 12.22° C | 87% | 1016.2 hPa | 0 mm | - | 0 W/m² | - |
| 1778129393 | 12.22° C | 88% | 1016.3 hPa | 0 mm | - | 0 W/m² | - |
| 1778129090 | 11.67° C | 88% | 1016.3 hPa | 0 mm | - | 0 W/m² | - |
| 1778128785 | 12.22° C | 87% | 1016.3 hPa | 0 mm | - | 0 W/m² | - |
| 1778128482 | 12.22° C | 87% | 1016.6 hPa | 0 mm | - | 0 W/m² | - |
| 1778128178 | 12.22° C | 87% | 1016.3 hPa | 0 mm | - | 0 W/m² | - |
| 1778127875 | 12.78° C | 86% | 1016.4 hPa | 0 mm | - | 0 W/m² | - |
| 1778127571 | 12.78° C | 85% | 1016.6 hPa | 0 mm | - | 0 W/m² | - |
| 1778127268 | 12.78° C | 86% | 1016.4 hPa | 0 mm | - | 0 W/m² | - |
| 1778126965 | 12.78° C | 86% | 1016.4 hPa | 0 mm | - | 0 W/m² | - |
| 1778126661 | 12.78° C | 86% | 1016.7 hPa | 0 mm | - | 0 W/m² | - |
| 1778126357 | 12.78° C | 86% | 1016.6 hPa | 0 mm | - | 0 W/m² | - |
* Rain latest hour (hover to see other rain measurements)
** Current wind speed in m/s (hover to see current wind gust speed)